Home   Weather   Chichester   Past weeks

Flag for United Kingdom Past Weather in Chichester, England, United Kingdom — Yesterday and Last 2 Weeks

Now
60 °F

Cool.


Feels Like: 56 °F
Forecast: 46 / 62 °F
Wind: 20 mph from West

Location: Thorney Island

Current Time: Oct 1, 2016 at 6:23:30 PM

Latest Report: Oct 1, 2016 at 5:00 PM


Visibility: 25 mi

Pressure: 29.68 "Hg

Humidity: 66%

Dew Point: 48 °F

Location of ChichesterLocation

Past Weather in Chichester — Graph

°F

Chichester Temperature Yesterday

Maximum temperature yesterday: 65 °F (at 1:00 PM)
Minimum temperature yesterday: 54 °F (at 8:00 AM)
Average temperature yesterday: 59 °F

High & Low Weather Summary for the Past Weeks

 TemperatureHumidityPressure
High70 °F (Sep 18, 2:00 PM)99% (Sep 20, 3:00 AM)30.32 "Hg (Sep 20, 3:00 AM)
Low45 °F (Sep 23, 7:00 AM)52% (Sep 16, 5:00 PM)29.68 "Hg (Oct 1, 3:00 PM)
Average60 °F82%30.09 "Hg
* Reported Sep 16 5:00 PM — Oct 1 5:00 PM, Chichester, Weather by CustomWeather, © 2016

Note: Actual official high and low records may vary slightly from our data, if they occured in-between our weather recording intervals... More about our weather records

Advertising

Chichester Weather History for the Previous 24 Hours

Scroll right to see more
 ConditionsComfort  
Time TempWeatherWind HumidityBarometerVisibility
5:00 PM
Sat, Oct 1
60 °FCool.20 mph66%29.68 "Hg25 mi
3:00 PM61 °FCool.22 mph66%29.68 "Hg25 mi
2:00 PM60 °FCool.16 mph67%29.68 "Hg31 mi
1:00 PM59 °FCool.8 mph75%29.69 "Hg19 mi
12:00 PM57 °FCool.8 mph80%29.70 "Hg31 mi
11:00 AM56 °FRain showers. Cloudy.17 mph85%29.70 "Hg22 mi
10:00 AM52 °FLots of rain. Cloudy.7 mph92%29.71 "Hg10 mi
9:00 AM57 °FCool.12 mph80%29.69 "Hg31 mi
8:00 AM51 °FLots of rain. Cloudy.3 mph99%29.70 "Hg19 mi
7:00 AM50 °FCool.6 mph99%29.70 "Hg11 mi
6:00 AM49 °FCool.3 mph99%29.72 "Hg11 mi
5:00 AM49 °FCool.5 mph99%29.73 "Hg11 mi
4:00 AM50 °FCool.3 mph99%29.75 "Hg7 mi
3:00 AM51 °FFog.3 mph96%29.76 "Hg3 mi
2:00 AM53 °FCool.5 mph93%29.78 "Hg12 mi
1:00 AM56 °FLots of rain. Overcast.6 mph91%29.80 "Hg16 mi
12:00 AM55 °FCool.2 mph84%29.82 "Hg19 mi
10:00 PM
Fri, Sep 30
56 °FCool.5 mph88%29.85 "Hg19 mi
9:00 PM56 °FCool.6 mph89%29.87 "Hg19 mi
8:00 PM58 °FCool.12 mph82%29.87 "Hg22 mi
7:00 PM59 °FCool.13 mph79%29.87 "Hg25 mi
6:00 PM61 °FCool.15 mph76%29.88 "Hg19 mi
Weather by CustomWeather, © 2016

See weather overviewHow to use our weather pages